logo
Rechercher aéroport 
image banner adimage banner adimage banner ad
image banner ad

KBLU - Blue Canyon - Nyack

Situé à Emigrant Gap, United States

ICAO - BLU, IATA - BLU

Données fournies par Airmate  

Information générale

Coordonnées: N39°16'30" W120°42'35"
Élévation : 5283 feet MSL.
Variation magnétique : 16° East
Voir autres Aéroports à California

Données opérationnelles

Special qualification required
Heure actuelle UTC:
Heure actuelle locale:
Météo
METAR: KBLU 281152Z AUTO 14004KT 10SM CLR 18/M08 A3020 RMK AO2 SLP131 T01781083 10189 20172 58005
Voir NOTAMs / SUP AIP / TFR affectant cet aéroport [VIEW]
Fréquences de communication: [VIEW]

Pistes:

Identifiant RWYQFULongueur (ft)Largeur (ft)SurfaceLDA (ft)
15330050ASPH
33330050ASPH

Coordonnées de l'aéroport

Adresse: Emigrant Gap United States

Vue satellite de KBLU